Time,TemperatureF,DewpointF,PressureIn,WindDirection,WindDirectionDegrees,WindSpeedMPH,WindSpeedGustMPH,Humidity,HourlyPrecipIn,Conditions,Clouds,dailyrainin,SoftwareType,DateUTC
2013-06-14 00:04:00,80.5,76.6,29.82,SE,135,0.0,3.0,88,0.00,,---,0.00,VWS V14.01,2013-06-14 05:04:00,
2013-06-14 00:09:00,80.6,76.7,29.83,SSE,157,3.0,4.0,88,0.00,,---,0.00,VWS V14.01,2013-06-14 05:09:00,
2013-06-14 00:14:00,80.7,76.8,29.83,SSE,166,0.0,5.0,88,0.00,,---,0.00,VWS V14.01,2013-06-14 05:14:00,
2013-06-14 00:19:00,80.7,76.8,29.83,West,271,0.0,5.0,88,0.00,,---,0.00,VWS V14.01,2013-06-14 05:19:00,
2013-06-14 00:24:00,80.7,76.8,29.83,West,263,0.0,5.0,88,0.00,,---,0.00,VWS V14.01,2013-06-14 05:24:00,
2013-06-14 00:29:00,80.8,76.9,29.83,ESE,116,2.0,5.0,88,0.00,,---,0.00,VWS V14.01,2013-06-14 05:29:00,
2013-06-14 00:34:00,80.8,76.9,29.83,SSE,163,0.0,2.0,88,0.00,,---,0.00,VWS V14.01,2013-06-14 05:34:00,
2013-06-14 00:39:00,80.7,76.8,29.83,South,184,2.0,2.0,88,0.00,,---,0.00,VWS V14.01,2013-06-14 05:39:00,
2013-06-14 00:44:00,80.7,76.8,29.82,SSE,166,1.0,3.0,88,0.00,,---,0.00,VWS V14.01,2013-06-14 05:44:00,
2013-06-14 00:49:00,80.7,76.8,29.82,South,175,1.0,4.0,88,0.00,,---,0.00,VWS V14.01,2013-06-14 05:49:00,
2013-06-14 00:55:00,80.6,76.7,29.82,SSW,192,1.0,4.0,88,0.00,,---,0.00,VWS V14.01,2013-06-14 05:55:00,
2013-06-14 01:00:00,80.6,76.7,29.82,South,169,0.0,4.0,88,0.00,,---,0.00,VWS V14.01,2013-06-14 06:00:00,
2013-06-14 01:05:00,80.6,77.0,29.82,SW,228,0.0,4.0,88,0.00,,,0.00,weatherlink.com 1.10,2013-06-14 06:05:00,
2013-06-14 01:10:00,80.6,76.7,29.81,SW,228,0.0,2.0,88,0.00,,---,0.00,VWS V14.01,2013-06-14 06:10:00,
2013-06-14 01:15:00,80.5,76.6,29.81,SW,228,0.0,2.0,88,0.00,,---,0.00,VWS V14.01,2013-06-14 06:15:00,
2013-06-14 01:20:00,80.5,76.6,29.81,ESE,112,0.0,2.0,88,0.00,,---,0.00,VWS V14.01,2013-06-14 06:20:00,
2013-06-14 01:25:00,80.5,76.6,29.82,ESE,112,0.0,2.0,88,0.00,,---,0.00,VWS V14.01,2013-06-14 06:25:00,
2013-06-14 01:30:00,80.5,76.6,29.82,ESE,112,1.0,2.0,88,0.00,,---,0.00,VWS V14.01,2013-06-14 06:30:00,
2013-06-14 01:35:00,80.6,76.7,29.82,South,173,0.0,2.0,88,0.00,,---,0.00,VWS V14.01,2013-06-14 06:35:00,
2013-06-14 01:40:00,80.6,76.7,29.82,ESE,122,0.0,2.0,88,0.00,,---,0.00,VWS V14.01,2013-06-14 06:40:00,
2013-06-14 01:46:00,80.6,76.7,29.82,ESE,122,0.0,2.0,88,0.00,,---,0.00,VWS V14.01,2013-06-14 06:46:00,
2013-06-14 01:51:00,80.6,76.7,29.82,ESE,122,0.0,2.0,88,0.00,,---,0.00,VWS V14.01,2013-06-14 06:51:00,
2013-06-14 01:56:00,80.6,76.7,29.82,ESE,121,0.0,2.0,88,0.00,,---,0.00,VWS V14.01,2013-06-14 06:56:00,
2013-06-14 02:01:00,80.6,76.7,29.82,ESE,121,0.0,2.0,88,0.00,,---,0.00,VWS V14.01,2013-06-14 07:01:00,
2013-06-14 02:06:00,80.6,76.7,29.83,ESE,121,0.0,0.0,88,0.00,,---,0.00,VWS V14.01,2013-06-14 07:06:00,
2013-06-14 02:11:00,80.6,77.1,29.82,ESE,121,0.0,1.0,89,0.00,,---,0.00,VWS V14.01,2013-06-14 07:11:00,
2013-06-14 02:16:00,80.5,77.0,29.81,ESE,122,0.0,2.0,89,0.00,,---,0.00,VWS V14.01,2013-06-14 07:16:00,
2013-06-14 02:21:00,80.5,77.0,29.82,ESE,122,0.0,2.0,89,0.00,,---,0.00,VWS V14.01,2013-06-14 07:21:00,
2013-06-14 02:26:00,80.5,77.0,29.81,SSW,213,0.0,2.0,89,0.00,,---,0.00,VWS V14.01,2013-06-14 07:26:00,
2013-06-14 02:31:00,80.5,77.0,29.82,SSW,213,0.0,2.0,89,0.00,,---,0.00,VWS V14.01,2013-06-14 07:31:00,
2013-06-14 02:36:00,80.5,77.0,29.81,South,170,2.0,2.0,89,0.00,,---,0.00,VWS V14.01,2013-06-14 07:36:00,
2013-06-14 02:41:00,80.5,77.0,29.80,WSW,254,0.0,3.0,89,0.00,,---,0.00,VWS V14.01,2013-06-14 07:41:00,
2013-06-14 02:47:00,80.5,77.0,29.80,SE,144,0.0,4.0,89,0.00,,---,0.00,VWS V14.01,2013-06-14 07:47:00,
2013-06-14 02:52:00,80.5,77.0,29.79,SSE,159,1.0,4.0,89,0.00,,---,0.00,VWS V14.01,2013-06-14 07:52:00,
2013-06-14 02:57:00,80.4,76.9,29.78,South,181,0.0,4.0,89,0.00,,---,0.00,VWS V14.01,2013-06-14 07:57:00,
2013-06-14 03:02:00,80.5,77.0,29.80,SSW,213,0.0,4.0,89,0.00,,---,0.00,VWS V14.01,2013-06-14 08:02:00,
2013-06-14 03:07:00,80.5,77.0,29.78,SSW,207,1.0,1.0,89,0.00,,---,0.00,VWS V14.01,2013-06-14 08:07:00,
2013-06-14 03:12:00,80.5,77.0,29.78,SSW,205,1.0,1.0,89,0.00,,---,0.00,VWS V14.01,2013-06-14 08:12:00,
2013-06-14 03:17:00,80.5,77.0,29.78,SSW,197,1.0,1.0,89,0.00,,---,0.00,VWS V14.01,2013-06-14 08:17:00,
2013-06-14 03:22:00,80.5,77.3,29.78,SW,223,0.0,2.0,90,0.00,,---,0.00,VWS V14.01,2013-06-14 08:22:00,
2013-06-14 03:27:00,80.5,77.3,29.78,WSW,237,0.0,2.0,90,0.00,,---,0.00,VWS V14.01,2013-06-14 08:27:00,
2013-06-14 03:32:00,80.5,77.3,29.77,SW,226,1.0,1.0,90,0.00,,---,0.00,VWS V14.01,2013-06-14 08:32:00,
2013-06-14 03:37:00,80.5,77.3,29.78,SSW,199,2.0,2.0,90,0.00,,---,0.00,VWS V14.01,2013-06-14 08:37:00,
2013-06-14 03:42:00,80.5,77.3,29.77,ESE,103,0.0,3.0,90,0.00,,---,0.00,VWS V14.01,2013-06-14 08:42:00,
2013-06-14 03:47:00,80.5,77.3,29.77,WSW,239,2.0,5.0,90,0.00,,---,0.00,VWS V14.01,2013-06-14 08:47:00,
2013-06-14 03:52:00,80.5,77.3,29.78,West,271,0.0,5.0,90,0.00,,---,0.00,VWS V14.01,2013-06-14 08:52:00,
2013-06-14 03:58:00,80.5,77.3,29.77,NW,316,0.0,5.0,90,0.00,,---,0.00,VWS V14.01,2013-06-14 08:58:00,
2013-06-14 04:03:00,80.5,77.3,29.78,North,355,0.0,2.0,90,0.00,,---,0.00,VWS V14.01,2013-06-14 09:03:00,
2013-06-14 04:08:00,80.5,77.3,29.78,NNW,329,0.0,2.0,90,0.00,,---,0.00,VWS V14.01,2013-06-14 09:08:00,
2013-06-14 04:13:00,80.5,77.0,29.78,NNW,329,0.0,2.0,89,0.00,,---,0.00,VWS V14.01,2013-06-14 09:13:00,
2013-06-14 04:18:00,80.5,77.0,29.78,NNW,329,0.0,2.0,89,0.00,,---,0.00,VWS V14.01,2013-06-14 09:18:00,
2013-06-14 04:23:00,80.3,77.1,29.77,NNW,329,0.0,2.0,90,0.00,,---,0.00,VWS V14.01,2013-06-14 09:23:00,
2013-06-14 04:28:00,80.2,77.0,29.76,NNW,329,0.0,2.0,90,0.00,,---,0.00,VWS V14.01,2013-06-14 09:28:00,
2013-06-14 04:33:00,80.1,76.9,29.76,NNW,329,0.0,0.0,90,0.00,,---,0.00,VWS V14.01,2013-06-14 09:33:00,
2013-06-14 04:38:00,80.1,76.9,29.77,NNW,329,0.0,0.0,90,0.00,,---,0.00,VWS V14.01,2013-06-14 09:38:00,
2013-06-14 04:43:00,80.0,76.8,29.77,NNW,329,0.0,0.0,90,0.00,,---,0.00,VWS V14.01,2013-06-14 09:43:00,
2013-06-14 04:48:00,79.9,76.7,29.77,NNW,329,0.0,0.0,90,0.00,,---,0.00,VWS V14.01,2013-06-14 09:48:00,
2013-06-14 04:53:00,79.8,76.6,29.77,NNW,329,0.0,0.0,90,0.00,,---,0.00,VWS V14.01,2013-06-14 09:53:00,
2013-06-14 04:58:00,79.7,76.8,29.77,NNW,329,0.0,0.0,91,0.00,,---,0.00,VWS V14.01,2013-06-14 09:58:00,
2013-06-14 05:04:00,79.6,76.8,29.78,NNW,329,0.0,0.0,91,0.00,,---,0.00,VWS V14.01,2013-06-14 10:04:00,
2013-06-14 05:09:00,79.6,76.8,29.77,NNW,329,0.0,0.0,91,0.00,,---,0.00,VWS V14.01,2013-06-14 10:09:00,
2013-06-14 05:14:00,79.5,76.7,29.78,NNW,329,0.0,0.0,91,0.00,,---,0.00,VWS V14.01,2013-06-14 10:14:00,
2013-06-14 05:19:00,79.4,76.6,29.78,NNW,329,0.0,1.0,91,0.00,,---,0.00,VWS V14.01,2013-06-14 10:19:00,
2013-06-14 05:24:00,79.4,76.6,29.78,NNW,344,0.0,1.0,91,0.00,,---,0.00,VWS V14.01,2013-06-14 10:24:00,
2013-06-14 05:29:00,79.3,76.4,29.78,NNW,344,0.0,1.0,91,0.00,,---,0.00,VWS V14.01,2013-06-14 10:29:00,
2013-06-14 05:34:00,79.2,76.3,29.78,NNW,344,0.0,0.0,91,0.00,,---,0.00,VWS V14.01,2013-06-14 10:34:00,
2013-06-14 05:39:00,79.1,76.6,29.78,NNW,344,0.0,0.0,92,0.00,,---,0.00,VWS V14.01,2013-06-14 10:39:00,
2013-06-14 05:44:00,79.0,76.5,29.78,NNW,344,0.0,0.0,92,0.00,,---,0.00,VWS V14.01,2013-06-14 10:44:00,
2013-06-14 05:49:00,78.9,76.4,29.79,NNW,344,0.0,0.0,92,0.00,,---,0.00,VWS V14.01,2013-06-14 10:49:00,
2013-06-14 05:54:00,78.9,76.4,29.79,NNW,344,0.0,0.0,92,0.00,,---,0.00,VWS V14.01,2013-06-14 10:54:00,
2013-06-14 05:59:00,78.9,76.4,29.79,NNW,344,0.0,0.0,92,0.00,,---,0.00,VWS V14.01,2013-06-14 10:59:00,
2013-06-14 06:05:00,78.8,76.3,29.79,NNW,344,0.0,0.0,92,0.00,,---,0.00,VWS V14.01,2013-06-14 11:05:00,
2013-06-14 06:10:00,78.8,76.3,29.79,NNW,344,0.0,0.0,92,0.00,,---,0.00,VWS V14.01,2013-06-14 11:10:00,
2013-06-14 06:15:00,78.8,76.3,29.79,NNW,344,0.0,0.0,92,0.00,,---,0.00,VWS V14.01,2013-06-14 11:15:00,
2013-06-14 06:20:00,78.9,76.4,29.79,NW,312,0.0,3.0,92,0.00,,---,0.00,VWS V14.01,2013-06-14 11:20:00,
2013-06-14 06:25:00,79.1,76.2,29.79,NW,312,0.0,3.0,91,0.00,,---,0.00,VWS V14.01,2013-06-14 11:25:00,
2013-06-14 06:30:00,79.3,76.4,29.79,NW,312,0.0,3.0,91,0.00,,---,0.00,VWS V14.01,2013-06-14 11:30:00,
2013-06-14 06:35:00,79.5,76.3,29.80,NW,311,0.0,0.0,90,0.00,,---,0.00,VWS V14.01,2013-06-14 11:35:00,
2013-06-14 06:40:00,79.6,76.4,29.80,NW,311,0.0,1.0,90,0.00,,---,0.00,VWS V14.01,2013-06-14 11:40:00,
2013-06-14 06:45:00,79.8,76.6,29.80,NW,308,0.0,2.0,90,0.00,,---,0.00,VWS V14.01,2013-06-14 11:45:00,
2013-06-14 06:50:00,79.9,76.4,29.80,NW,309,0.0,2.0,89,0.00,,---,0.00,VWS V14.01,2013-06-14 11:50:00,
2013-06-14 06:55:00,80.1,76.6,29.80,NW,308,0.0,2.0,89,0.00,,---,0.00,VWS V14.01,2013-06-14 11:55:00,
2013-06-14 07:00:00,80.2,76.0,29.81,WNW,303,1.0,2.0,87,0.00,,---,0.00,VWS V14.01,2013-06-14 12:00:00,
2013-06-14 07:05:00,80.4,75.8,29.81,NNW,346,3.0,5.0,86,0.00,,---,0.00,VWS V14.01,2013-06-14 12:05:00,
2013-06-14 07:11:00,80.6,75.7,29.81,NNE,23,2.0,5.0,85,0.00,,---,0.00,VWS V14.01,2013-06-14 12:11:00,
2013-06-14 07:16:00,80.8,75.2,29.81,NNW,330,1.0,5.0,83,0.00,,---,0.00,VWS V14.01,2013-06-14 12:16:00,
2013-06-14 07:21:00,81.0,75.3,29.81,NNW,344,1.0,5.0,83,0.00,,---,0.00,VWS V14.01,2013-06-14 12:21:00,
2013-06-14 07:26:00,81.4,75.0,29.81,NW,317,0.0,5.0,81,0.00,,---,0.00,VWS V14.01,2013-06-14 12:26:00,
2013-06-14 07:31:00,81.7,75.3,29.81,NW,315,1.0,5.0,81,0.00,,---,0.00,VWS V14.01,2013-06-14 12:31:00,
2013-06-14 07:36:00,82.1,75.3,29.81,North,360,0.0,4.0,80,0.00,,---,0.00,VWS V14.01,2013-06-14 12:36:00,
2013-06-14 07:41:00,82.3,75.5,29.81,West,259,0.0,5.0,80,0.00,,---,0.00,VWS V14.01,2013-06-14 12:41:00,
2013-06-14 07:46:00,82.5,75.7,29.81,North,5,3.0,5.0,80,0.00,,---,0.00,VWS V14.01,2013-06-14 12:46:00,
2013-06-14 07:51:00,82.8,75.6,29.81,WSW,239,1.0,5.0,79,0.00,,---,0.00,VWS V14.01,2013-06-14 12:51:00,
2013-06-14 07:56:00,83.1,75.9,29.81,WSW,246,2.0,5.0,79,0.00,,---,0.00,VWS V14.01,2013-06-14 12:56:00,
2013-06-14 08:01:00,83.3,75.7,29.81,SSE,149,1.0,5.0,78,0.00,,---,0.00,VWS V14.01,2013-06-14 13:01:00,
2013-06-14 08:06:00,83.6,75.6,29.81,NW,307,0.0,4.0,77,0.00,,---,0.00,VWS V14.01,2013-06-14 13:06:00,
2013-06-14 08:11:00,84.1,76.1,29.81,East,87,0.0,4.0,77,0.00,,---,0.00,VWS V14.01,2013-06-14 13:11:00,
2013-06-14 08:16:00,84.7,76.3,29.81,North,360,0.0,4.0,76,0.00,,---,0.00,VWS V14.01,2013-06-14 13:16:00,
2013-06-14 08:21:00,84.8,76.4,29.81,South,186,0.0,4.0,76,0.00,,---,0.00,VWS V14.01,2013-06-14 13:21:00,
2013-06-14 08:27:00,84.8,75.6,29.81,WSW,254,1.0,4.0,74,0.00,,---,0.00,VWS V14.01,2013-06-14 13:27:00,
2013-06-14 08:32:00,85.0,75.8,29.81,West,260,0.0,4.0,74,0.00,,---,0.00,VWS V14.01,2013-06-14 13:32:00,
2013-06-14 08:37:00,85.4,76.2,29.81,East,98,0.0,3.0,74,0.00,,---,0.00,VWS V14.01,2013-06-14 13:37:00,
2013-06-14 08:42:00,85.5,76.3,29.81,NE,44,1.0,3.0,74,0.00,,---,0.00,VWS V14.01,2013-06-14 13:42:00,
2013-06-14 08:47:00,85.4,75.8,29.81,NNW,334,0.0,3.0,73,0.00,,---,0.00,VWS V14.01,2013-06-14 13:47:00,
2013-06-14 08:52:00,85.5,75.9,29.81,East,83,0.0,3.0,73,0.00,,---,0.00,VWS V14.01,2013-06-14 13:52:00,
2013-06-14 08:57:00,85.9,76.2,29.81,SW,234,0.0,5.0,73,0.00,,---,0.00,VWS V14.01,2013-06-14 13:57:00,
2013-06-14 09:02:00,86.3,76.2,29.81,North,11,2.0,4.0,72,0.00,,---,0.00,VWS V14.01,2013-06-14 14:02:00,
2013-06-14 09:07:00,86.4,75.9,29.81,NNW,333,1.0,4.0,71,0.00,,---,0.00,VWS V14.01,2013-06-14 14:07:00,
2013-06-14 09:12:00,86.6,76.1,29.81,North,355,2.0,4.0,71,0.00,,---,0.00,VWS V14.01,2013-06-14 14:12:00,
2013-06-14 09:17:00,87.0,76.5,29.81,NNE,19,5.0,6.0,71,0.00,,---,0.00,VWS V14.01,2013-06-14 14:17:00,
2013-06-14 09:22:00,87.1,76.6,29.81,NNW,338,5.0,6.0,71,0.00,,---,0.00,VWS V14.01,2013-06-14 14:22:00,
2013-06-14 09:27:00,86.9,76.0,29.81,North,5,1.0,7.0,71,0.00,,,0.00,weatherlink.com 1.10,2013-06-14 14:27:00,
2013-06-14 09:33:00,87.1,77.0,29.81,NNW,336,2.0,2.0,72,0.00,,---,0.00,VWS V14.01,2013-06-14 14:33:00,
2013-06-14 09:38:00,87.2,76.7,29.81,NW,326,2.0,7.0,71,0.00,,---,0.00,VWS V14.01,2013-06-14 14:38:00,
2013-06-14 09:43:00,87.4,76.4,29.82,North,355,2.0,7.0,70,0.00,,---,0.00,VWS V14.01,2013-06-14 14:43:00,
2013-06-14 09:48:00,87.4,77.3,29.82,NW,324,0.0,7.0,72,0.00,,---,0.00,VWS V14.01,2013-06-14 14:48:00,
2013-06-14 09:53:00,87.4,77.3,29.82,North,11,1.0,7.0,72,0.00,,---,0.00,VWS V14.01,2013-06-14 14:53:00,
2013-06-14 09:58:00,87.4,77.3,29.82,NE,46,6.0,8.0,72,0.00,,---,0.00,VWS V14.01,2013-06-14 14:58:00,
2013-06-14 10:03:00,86.9,77.2,29.82,North,5,2.0,4.0,73,0.00,,---,0.00,VWS V14.01,2013-06-14 15:03:00,
2013-06-14 10:08:00,87.0,77.3,29.82,North,355,3.0,7.0,73,0.00,,---,0.00,VWS V14.01,2013-06-14 15:08:00,
2013-06-14 10:13:00,86.8,77.1,29.82,North,355,4.0,7.0,73,0.00,,---,0.00,VWS V14.01,2013-06-14 15:13:00,
2013-06-14 10:18:00,86.9,77.2,29.82,NNW,346,4.0,8.0,73,0.00,,---,0.00,VWS V14.01,2013-06-14 15:18:00,
2013-06-14 10:23:00,87.4,77.7,29.82,North,9,0.0,8.0,73,0.00,,---,0.00,VWS V14.01,2013-06-14 15:23:00,
2013-06-14 10:29:00,87.6,77.5,29.82,NNW,337,3.0,8.0,72,0.00,,---,0.00,VWS V14.01,2013-06-14 15:29:00,
2013-06-14 10:34:00,87.8,77.2,29.82,ENE,75,3.0,9.0,71,0.00,,---,0.00,VWS V14.01,2013-06-14 15:34:00,
2013-06-14 10:39:00,87.6,77.5,29.82,NNW,334,2.0,9.0,72,0.00,,---,0.00,VWS V14.01,2013-06-14 15:39:00,
2013-06-14 10:44:00,87.5,77.4,29.82,NNE,24,3.0,9.0,72,0.00,,---,0.00,VWS V14.01,2013-06-14 15:44:00,
2013-06-14 10:49:00,87.6,77.5,29.82,North,355,2.0,9.0,72,0.00,,---,0.00,VWS V14.01,2013-06-14 15:49:00,
2013-06-14 10:54:00,87.9,77.8,29.82,NNE,24,4.0,9.0,72,0.00,,---,0.00,VWS V14.01,2013-06-14 15:54:00,
2013-06-14 10:59:00,87.9,77.8,29.82,ENE,57,2.0,9.0,72,0.00,,---,0.00,VWS V14.01,2013-06-14 15:59:00,
2013-06-14 11:04:00,88.1,77.9,29.81,ENE,59,2.0,6.0,72,0.00,,---,0.00,VWS V14.01,2013-06-14 16:04:00,
2013-06-14 11:09:00,87.8,77.7,29.82,NW,320,0.0,6.0,72,0.00,,---,0.00,VWS V14.01,2013-06-14 16:09:00,
2013-06-14 11:14:00,87.7,77.6,29.82,NE,47,4.0,6.0,72,0.00,,---,0.00,VWS V14.01,2013-06-14 16:14:00,
2013-06-14 11:19:00,87.3,77.2,29.81,NE,43,4.0,7.0,72,0.00,,---,0.00,VWS V14.01,2013-06-14 16:19:00,
2013-06-14 11:24:00,87.0,76.9,29.82,North,5,4.0,7.0,72,0.00,,---,0.00,VWS V14.01,2013-06-14 16:24:00,
2013-06-14 11:29:00,87.2,77.1,29.81,NE,41,2.0,7.0,72,0.00,,---,0.00,VWS V14.01,2013-06-14 16:29:00,
2013-06-14 11:35:00,87.7,77.1,29.82,NNE,17,2.0,4.0,71,0.00,,---,0.00,VWS V14.01,2013-06-14 16:35:00,
2013-06-14 11:40:00,87.8,76.8,29.82,North,10,2.0,6.0,70,0.00,,---,0.00,VWS V14.01,2013-06-14 16:40:00,
2013-06-14 11:45:00,87.9,76.9,29.82,ENE,58,4.0,6.0,70,0.00,,---,0.00,VWS V14.01,2013-06-14 16:45:00,
2013-06-14 11:50:00,87.7,76.7,29.81,NNW,339,6.0,7.0,70,0.00,,---,0.00,VWS V14.01,2013-06-14 16:50:00,
2013-06-14 11:55:00,87.4,76.8,29.81,NNW,331,3.0,7.0,71,0.00,,---,0.00,VWS V14.01,2013-06-14 16:55:00,
2013-06-14 12:00:00,87.5,76.9,29.81,NNE,33,3.0,7.0,71,0.00,,---,0.00,VWS V14.01,2013-06-14 17:00:00,
2013-06-14 12:05:00,87.9,76.5,29.81,North,350,2.0,6.0,69,0.00,,---,0.00,VWS V14.01,2013-06-14 17:05:00,
2013-06-14 12:10:00,88.2,77.2,29.82,NNW,328,1.0,6.0,70,0.00,,---,0.00,VWS V14.01,2013-06-14 17:10:00,
2013-06-14 12:15:00,88.5,77.0,29.82,North,355,2.0,7.0,69,0.00,,---,0.00,VWS V14.01,2013-06-14 17:15:00,
2013-06-14 12:20:00,88.7,76.8,29.81,NE,41,4.0,7.0,68,0.00,,---,0.00,VWS V14.01,2013-06-14 17:20:00,
2013-06-14 12:25:00,89.1,77.6,29.82,East,80,1.0,8.0,69,0.00,,---,0.00,VWS V14.01,2013-06-14 17:25:00,
2013-06-14 12:30:00,89.8,77.4,29.81,North,5,2.0,8.0,67,0.00,,---,0.00,VWS V14.01,2013-06-14 17:30:00,
2013-06-14 12:36:00,90.0,78.0,29.81,NE,39,3.0,8.0,68,0.00,,---,0.00,VWS V14.01,2013-06-14 17:36:00,
2013-06-14 12:41:00,90.0,76.2,29.81,NNE,27,6.0,8.0,64,0.00,,---,0.00,VWS V14.01,2013-06-14 17:41:00,
2013-06-14 12:46:00,89.9,76.6,29.81,NNW,339,5.0,8.0,65,0.00,,---,0.00,VWS V14.01,2013-06-14 17:46:00,
2013-06-14 12:51:00,90.0,76.7,29.81,NNW,333,2.0,8.0,65,0.00,,---,0.00,VWS V14.01,2013-06-14 17:51:00,
2013-06-14 12:56:00,90.4,76.1,29.81,NE,40,4.0,8.0,63,0.00,,---,0.00,VWS V14.01,2013-06-14 17:56:00,
2013-06-14 13:01:00,90.4,76.6,29.81,North,5,4.0,8.0,64,0.00,,---,0.00,VWS V14.01,2013-06-14 18:01:00,
2013-06-14 13:06:00,90.7,75.9,29.81,NNE,32,1.0,5.0,62,0.00,,---,0.00,VWS V14.01,2013-06-14 18:06:00,
2013-06-14 13:11:00,91.0,75.7,29.81,North,355,2.0,5.0,61,0.00,,---,0.00,VWS V14.01,2013-06-14 18:11:00,
2013-06-14 13:16:00,91.3,75.0,29.81,North,355,1.0,5.0,59,0.00,,---,0.00,VWS V14.01,2013-06-14 18:16:00,
2013-06-14 13:21:00,91.3,76.0,29.80,East,82,5.0,6.0,61,0.00,,---,0.00,VWS V14.01,2013-06-14 18:21:00,
2013-06-14 13:26:00,91.4,75.6,29.80,NE,49,2.0,7.0,60,0.00,,---,0.00,VWS V14.01,2013-06-14 18:26:00,
2013-06-14 13:31:00,91.5,75.7,29.80,NNE,15,1.0,7.0,60,0.00,,---,0.00,VWS V14.01,2013-06-14 18:31:00,
2013-06-14 13:37:00,91.8,75.4,29.80,West,280,1.0,4.0,59,0.00,,---,0.00,VWS V14.01,2013-06-14 18:37:00,
2013-06-14 13:42:00,91.6,75.8,29.80,NE,53,5.0,6.0,60,0.00,,---,0.00,VWS V14.01,2013-06-14 18:42:00,
2013-06-14 13:47:00,92.0,75.6,29.80,NE,51,4.0,6.0,59,0.00,,---,0.00,VWS V14.01,2013-06-14 18:47:00,
2013-06-14 13:52:00,91.9,74.5,29.80,North,355,6.0,6.0,57,0.00,,---,0.00,VWS V14.01,2013-06-14 18:52:00,
2013-06-14 13:57:00,91.4,75.6,29.79,WSW,257,3.0,6.0,60,0.00,,---,0.00,VWS V14.01,2013-06-14 18:57:00,
2013-06-14 14:02:00,91.2,74.4,29.80,North,5,1.0,3.0,58,0.00,,---,0.00,VWS V14.01,2013-06-14 19:02:00,
2013-06-14 14:07:00,91.3,73.9,29.79,NNE,19,1.0,4.0,57,0.00,,---,0.00,VWS V14.01,2013-06-14 19:07:00,
2013-06-14 14:12:00,91.7,73.8,29.79,North,5,4.0,6.0,56,0.00,,---,0.00,VWS V14.01,2013-06-14 19:12:00,
2013-06-14 14:17:00,92.2,74.8,29.79,NW,321,3.0,6.0,57,0.00,,---,0.00,VWS V14.01,2013-06-14 19:17:00,
2013-06-14 14:22:00,92.1,74.2,29.79,NNE,19,3.0,7.0,56,0.00,,---,0.00,VWS V14.01,2013-06-14 19:22:00,
2013-06-14 14:27:00,92.5,74.0,29.79,ENE,61,1.0,7.0,55,0.00,,---,0.00,VWS V14.01,2013-06-14 19:27:00,
2013-06-14 14:32:00,92.6,73.5,29.79,North,5,0.0,3.0,54,0.00,,---,0.00,VWS V14.01,2013-06-14 19:32:00,
2013-06-14 14:38:00,92.9,73.8,29.79,NNW,336,4.0,8.0,54,0.00,,---,0.00,VWS V14.01,2013-06-14 19:38:00,
2013-06-14 14:43:00,92.6,73.0,29.79,North,351,4.0,8.0,53,0.00,,---,0.00,VWS V14.01,2013-06-14 19:43:00,
2013-06-14 14:48:00,92.7,72.5,29.79,NW,304,1.0,8.0,52,0.00,,---,0.00,VWS V14.01,2013-06-14 19:48:00,
2013-06-14 14:53:00,92.7,73.1,29.79,WNW,298,0.0,8.0,53,0.00,,---,0.00,VWS V14.01,2013-06-14 19:53:00,
2013-06-14 14:58:00,92.2,73.2,29.79,North,355,1.0,8.0,54,0.00,,---,0.00,VWS V14.01,2013-06-14 19:58:00,
2013-06-14 15:03:00,92.2,73.2,29.79,NE,36,3.0,8.0,54,0.00,,---,0.00,VWS V14.01,2013-06-14 20:03:00,
2013-06-14 15:08:00,92.6,72.4,29.79,North,355,2.0,8.0,52,0.00,,---,0.00,VWS V14.01,2013-06-14 20:08:00,
2013-06-14 15:13:00,92.2,71.5,29.79,NE,38,2.0,8.0,51,0.00,,---,0.00,VWS V14.01,2013-06-14 20:13:00,
2013-06-14 15:18:00,92.4,71.7,29.79,NW,314,2.0,8.0,51,0.00,,---,0.00,VWS V14.01,2013-06-14 20:18:00,
2013-06-14 15:23:00,92.3,71.0,29.79,ENE,58,1.0,8.0,50,0.00,,---,0.00,VWS V14.01,2013-06-14 20:23:00,
2013-06-14 15:28:00,92.8,70.8,29.79,North,5,2.0,8.0,49,0.00,,---,0.00,VWS V14.01,2013-06-14 20:28:00,
2013-06-14 15:33:00,93.5,72.1,29.79,NNW,344,2.0,3.0,50,0.00,,---,0.00,VWS V14.01,2013-06-14 20:33:00,
2013-06-14 15:38:00,94.1,71.4,29.79,NNW,343,1.0,5.0,48,0.00,,---,0.00,VWS V14.01,2013-06-14 20:38:00,
2013-06-14 15:44:00,94.0,70.1,29.79,WNW,297,0.0,5.0,46,0.00,,---,0.00,VWS V14.01,2013-06-14 20:44:00,
2013-06-14 15:49:00,94.3,72.2,29.79,NNW,346,2.0,5.0,49,0.00,,---,0.00,VWS V14.01,2013-06-14 20:49:00,
2013-06-14 15:54:00,94.5,71.2,29.79,NNW,347,1.0,6.0,47,0.00,,---,0.00,VWS V14.01,2013-06-14 20:54:00,
2013-06-14 15:59:00,94.6,71.9,29.79,NNW,344,1.0,6.0,48,0.00,,---,0.00,VWS V14.01,2013-06-14 20:59:00,
2013-06-14 16:04:00,94.1,72.0,29.79,NNW,329,1.0,2.0,49,0.00,,---,0.00,VWS V14.01,2013-06-14 21:04:00,
2013-06-14 16:09:00,94.1,74.4,29.79,NW,311,1.0,2.0,53,0.00,,---,0.00,VWS V14.01,2013-06-14 21:09:00,
2013-06-14 16:14:00,94.2,71.5,29.78,West,267,0.0,4.0,48,0.00,,---,0.00,VWS V14.01,2013-06-14 21:14:00,
2013-06-14 16:19:00,94.5,72.4,29.78,ENE,71,2.0,4.0,49,0.00,,---,0.00,VWS V14.01,2013-06-14 21:19:00,
2013-06-14 16:24:00,94.5,71.8,29.78,WSW,246,1.0,4.0,48,0.00,,---,0.00,VWS V14.01,2013-06-14 21:24:00,
2013-06-14 16:29:00,94.8,77.2,29.78,SSE,159,1.0,4.0,57,0.00,,---,0.00,VWS V14.01,2013-06-14 21:29:00,
2013-06-14 16:34:00,94.9,78.3,29.78,SSE,158,2.0,4.0,59,0.00,,---,0.00,VWS V14.01,2013-06-14 21:34:00,
2013-06-14 16:39:00,94.2,78.2,29.78,SSE,158,1.0,4.0,60,0.00,,---,0.00,VWS V14.01,2013-06-14 21:39:00,
2013-06-14 16:45:00,93.4,78.4,29.78,SSE,150,3.0,4.0,62,0.00,,---,0.00,VWS V14.01,2013-06-14 21:45:00,
2013-06-14 16:50:00,92.0,77.6,29.78,SSE,163,1.0,5.0,63,0.00,,---,0.00,VWS V14.01,2013-06-14 21:50:00,
2013-06-14 16:55:00,91.3,77.9,29.78,SSE,165,1.0,5.0,65,0.00,,---,0.00,VWS V14.01,2013-06-14 21:55:00,
2013-06-14 17:00:00,91.1,78.2,29.78,South,172,2.0,5.0,66,0.00,,---,0.00,VWS V14.01,2013-06-14 22:00:00,
2013-06-14 17:05:00,90.9,77.5,29.77,South,171,1.0,4.0,65,0.00,,---,0.00,VWS V14.01,2013-06-14 22:05:00,
2013-06-14 17:10:00,90.9,78.0,29.77,South,169,3.0,4.0,66,0.00,,---,0.00,VWS V14.01,2013-06-14 22:10:00,
2013-06-14 17:15:00,90.9,78.4,29.77,SSE,165,0.0,4.0,67,0.00,,---,0.00,VWS V14.01,2013-06-14 22:15:00,
2013-06-14 17:20:00,90.8,77.4,29.77,SSE,167,3.0,4.0,65,0.00,,---,0.00,VWS V14.01,2013-06-14 22:20:00,
2013-06-14 17:25:00,90.5,77.6,29.77,SSE,157,2.0,4.0,66,0.00,,---,0.00,VWS V14.01,2013-06-14 22:25:00,
2013-06-14 17:30:00,90.3,77.4,29.78,SSE,154,0.0,4.0,66,0.00,,---,0.00,VWS V14.01,2013-06-14 22:30:00,
2013-06-14 17:35:00,90.2,76.8,29.78,SSE,167,0.0,3.0,65,0.00,,---,0.00,VWS V14.01,2013-06-14 22:35:00,
2013-06-14 17:41:00,90.0,77.1,29.78,SSE,163,0.0,3.0,66,0.00,,---,0.00,VWS V14.01,2013-06-14 22:41:00,
2013-06-14 17:46:00,89.5,77.6,29.77,SSE,163,0.0,3.0,68,0.00,,---,0.00,VWS V14.01,2013-06-14 22:46:00,
2013-06-14 17:51:00,88.9,77.4,29.77,WSW,246,0.0,3.0,69,0.00,,---,0.00,VWS V14.01,2013-06-14 22:51:00,
2013-06-14 17:56:00,88.7,77.7,29.77,WSW,246,0.0,3.0,70,0.00,,---,0.00,VWS V14.01,2013-06-14 22:56:00,
2013-06-14 18:01:00,88.5,78.3,29.78,South,171,0.0,3.0,72,0.00,,---,0.00,VWS V14.01,2013-06-14 23:01:00,
2013-06-14 18:06:00,88.3,78.6,29.78,SSE,164,0.0,2.0,73,0.00,,---,0.00,VWS V14.01,2013-06-14 23:06:00,
2013-06-14 18:11:00,88.2,78.4,29.78,SSE,164,0.0,2.0,73,0.00,,---,0.00,VWS V14.01,2013-06-14 23:11:00,
2013-06-14 18:16:00,88.2,78.9,29.78,South,173,0.0,2.0,74,0.00,,---,0.00,VWS V14.01,2013-06-14 23:16:00,
2013-06-14 18:21:00,88.2,78.9,29.78,South,172,2.0,2.0,74,0.00,,---,0.00,VWS V14.01,2013-06-14 23:21:00,
2013-06-14 18:26:00,88.0,79.1,29.78,South,172,1.0,2.0,75,0.00,,---,0.00,VWS V14.01,2013-06-14 23:26:00,
2013-06-14 18:31:00,87.8,79.3,29.78,South,180,0.0,2.0,76,0.00,,---,0.00,VWS V14.01,2013-06-14 23:31:00,
2013-06-14 18:36:00,87.5,79.0,29.78,SSE,168,1.0,2.0,76,0.00,,---,0.00,VWS V14.01,2013-06-14 23:36:00,
2013-06-14 18:41:00,87.4,78.9,29.78,South,188,0.0,3.0,76,0.00,,---,0.00,VWS V14.01,2013-06-14 23:41:00,
2013-06-14 18:47:00,87.4,78.9,29.78,SE,139,2.0,4.0,76,0.00,,---,0.00,VWS V14.01,2013-06-14 23:47:00,
2013-06-14 18:52:00,87.2,78.7,29.79,WSW,252,1.0,4.0,76,0.00,,---,0.00,VWS V14.01,2013-06-14 23:52:00,
2013-06-14 18:57:00,87.3,78.8,29.79,SSE,156,0.0,4.0,76,0.00,,---,0.00,VWS V14.01,2013-06-14 23:57:00,
2013-06-14 19:02:00,87.3,78.0,29.79,SSE,156,0.0,4.0,74,0.00,,---,0.00,VWS V14.01,2013-06-15 00:02:00,
2013-06-14 19:07:00,87.4,78.1,29.79,SSE,163,1.0,3.0,74,0.00,,---,0.00,VWS V14.01,2013-06-15 00:07:00,
2013-06-14 19:12:00,87.6,77.5,29.79,North,360,1.0,3.0,72,0.00,,---,0.00,VWS V14.01,2013-06-15 00:12:00,
2013-06-14 19:17:00,87.5,77.8,29.79,SW,215,0.0,3.0,73,0.00,,---,0.00,VWS V14.01,2013-06-15 00:17:00,
2013-06-14 19:22:00,87.4,78.5,29.79,ENE,68,0.0,3.0,75,0.00,,---,0.00,VWS V14.01,2013-06-15 00:22:00,
2013-06-14 19:27:00,87.2,77.9,29.79,ENE,68,0.0,3.0,74,0.00,,---,0.00,VWS V14.01,2013-06-15 00:27:00,
2013-06-14 19:32:00,86.9,76.4,29.79,North,11,1.0,2.0,71,0.00,,---,0.00,VWS V14.01,2013-06-15 00:32:00,
2013-06-14 19:37:00,86.8,73.6,29.80,NNE,22,2.0,5.0,65,0.00,,---,0.00,VWS V14.01,2013-06-15 00:37:00,
2013-06-14 19:43:00,86.9,73.7,29.80,NNE,21,0.0,5.0,65,0.00,,---,0.00,VWS V14.01,2013-06-15 00:43:00,
2013-06-14 19:48:00,86.7,73.1,29.80,NNE,19,0.0,5.0,64,0.00,,---,0.00,VWS V14.01,2013-06-15 00:48:00,
2013-06-14 19:53:00,86.5,73.3,29.80,NNE,18,3.0,5.0,65,0.00,,---,0.00,VWS V14.01,2013-06-15 00:53:00,
2013-06-14 19:58:00,86.3,73.2,29.81,NNW,347,0.0,5.0,65,0.00,,---,0.00,VWS V14.01,2013-06-15 00:58:00,
2013-06-14 20:03:00,86.1,73.0,29.81,NNE,13,0.0,1.0,65,0.00,,---,0.00,VWS V14.01,2013-06-15 01:03:00,
2013-06-14 20:08:00,85.9,72.3,29.81,NNW,348,2.0,4.0,64,0.00,,---,0.00,VWS V14.01,2013-06-15 01:08:00,
2013-06-14 20:13:00,85.8,72.7,29.81,North,360,0.0,4.0,65,0.00,,---,0.00,VWS V14.01,2013-06-15 01:13:00,
2013-06-14 20:18:00,85.6,72.5,29.81,North,360,2.0,4.0,65,0.00,,---,0.00,VWS V14.01,2013-06-15 01:18:00,
2013-06-14 20:23:00,85.3,72.2,29.82,NNE,13,1.0,4.0,65,0.00,,---,0.00,VWS V14.01,2013-06-15 01:23:00,
2013-06-14 20:28:00,85.1,72.5,29.81,NNW,346,0.0,4.0,66,0.00,,---,0.00,VWS V14.01,2013-06-15 01:28:00,
2013-06-14 20:33:00,84.9,71.8,29.82,NNW,346,0.0,1.0,65,0.00,,---,0.00,VWS V14.01,2013-06-15 01:33:00,
2013-06-14 20:38:00,84.6,71.6,29.82,NNW,341,2.0,3.0,65,0.00,,---,0.00,VWS V14.01,2013-06-15 01:38:00,
2013-06-14 20:44:00,84.5,71.4,29.82,NE,34,0.0,3.0,65,0.00,,---,0.00,VWS V14.01,2013-06-15 01:44:00,
2013-06-14 20:49:00,84.2,71.2,29.82,NNE,28,0.0,3.0,65,0.00,,---,0.00,VWS V14.01,2013-06-15 01:49:00,
2013-06-14 20:54:00,84.1,71.1,29.82,NNE,28,0.0,3.0,65,0.00,,---,0.00,VWS V14.01,2013-06-15 01:54:00,
2013-06-14 20:59:00,83.8,70.8,29.83,NNE,28,0.0,3.0,65,0.00,,---,0.00,VWS V14.01,2013-06-15 01:59:00,
2013-06-14 21:04:00,83.6,71.1,29.83,NNE,28,0.0,0.0,66,0.00,,---,0.00,VWS V14.01,2013-06-15 02:04:00,
2013-06-14 21:09:00,83.4,70.9,29.83,NNE,28,0.0,1.0,66,0.00,,---,0.00,VWS V14.01,2013-06-15 02:09:00,
2013-06-14 21:14:00,83.2,70.7,29.83,NNE,28,0.0,2.0,66,0.00,,---,0.00,VWS V14.01,2013-06-15 02:14:00,
2013-06-14 21:19:00,83.0,70.9,29.84,NNE,28,0.0,2.0,67,0.00,,---,0.00,VWS V14.01,2013-06-15 02:19:00,
2013-06-14 21:24:00,82.9,70.8,29.84,NNE,28,0.0,2.0,67,0.00,,---,0.00,VWS V14.01,2013-06-15 02:24:00,
2013-06-14 21:29:00,82.7,70.6,29.84,NNE,28,0.0,2.0,67,0.00,,---,0.00,VWS V14.01,2013-06-15 02:29:00,
2013-06-14 21:34:00,82.5,70.4,29.84,NNE,28,0.0,1.0,67,0.00,,---,0.00,VWS V14.01,2013-06-15 02:34:00,
2013-06-14 21:39:00,82.3,70.7,29.84,NNE,28,0.0,1.0,68,0.00,,---,0.00,VWS V14.01,2013-06-15 02:39:00,
2013-06-14 21:45:00,82.1,70.5,29.84,NNE,28,0.0,1.0,68,0.00,,---,0.00,VWS V14.01,2013-06-15 02:45:00,
2013-06-14 21:50:00,82.0,70.4,29.84,NNE,28,0.0,2.0,68,0.00,,---,0.00,VWS V14.01,2013-06-15 02:50:00,
2013-06-14 21:55:00,81.8,70.2,29.85,NNE,28,0.0,2.0,68,0.00,,---,0.00,VWS V14.01,2013-06-15 02:55:00,
2013-06-14 22:00:00,81.7,71.8,29.85,NNE,28,0.0,2.0,72,0.00,,---,0.00,VWS V14.01,2013-06-15 03:00:00,
2013-06-14 22:05:00,81.3,71.4,29.85,NNE,28,0.0,0.0,72,0.00,,---,0.00,VWS V14.01,2013-06-15 03:05:00,
2013-06-14 22:10:00,80.9,70.6,29.85,NNE,18,2.0,2.0,71,0.00,,---,0.00,VWS V14.01,2013-06-15 03:10:00,
2013-06-14 22:15:00,80.7,71.2,29.86,NNE,18,0.0,2.0,73,0.00,,---,0.00,VWS V14.01,2013-06-15 03:15:00,
2013-06-14 22:20:00,80.5,70.2,29.86,NNE,18,0.0,2.0,71,0.00,,---,0.00,VWS V14.01,2013-06-15 03:20:00,
2013-06-14 22:25:00,80.3,70.5,29.86,NNE,18,0.0,2.0,72,0.00,,---,0.00,VWS V14.01,2013-06-15 03:25:00,
2013-06-14 22:30:00,80.2,69.9,29.86,NNE,18,1.0,2.0,71,0.00,,---,0.00,VWS V14.01,2013-06-15 03:30:00,
2013-06-14 22:35:00,80.1,70.3,29.86,NNE,18,1.0,2.0,72,0.00,,---,0.00,VWS V14.01,2013-06-15 03:35:00,
2013-06-14 22:40:00,80.1,70.3,29.86,NNE,18,0.0,2.0,72,0.00,,---,0.00,VWS V14.01,2013-06-15 03:40:00,
2013-06-14 22:45:00,80.0,70.2,29.87,NNE,18,2.0,2.0,72,0.00,,---,0.00,VWS V14.01,2013-06-15 03:45:00,
2013-06-14 22:50:00,79.9,70.1,29.86,NNE,18,0.0,2.0,72,0.00,,---,0.00,VWS V14.01,2013-06-15 03:50:00,
2013-06-14 22:56:00,79.8,70.0,29.87,NNE,18,0.0,2.0,72,0.00,,---,0.00,VWS V14.01,2013-06-15 03:56:00,
2013-06-14 23:01:00,79.8,70.0,29.87,NNE,18,1.0,3.0,72,0.00,,---,0.00,VWS V14.01,2013-06-15 04:01:00,
2013-06-14 23:02:00,79.7,69.9,29.87,NNE,18,0.0,3.0,72,0.00,,---,0.00,VWS V14.01,2013-06-15 04:02:00,
2013-06-14 23:07:00,79.7,69.9,29.86,NNE,24,2.0,2.0,72,0.00,,---,0.00,VWS V14.01,2013-06-15 04:07:00,
2013-06-14 23:12:00,79.6,69.8,29.86,NNE,24,0.0,2.0,72,0.00,,---,0.00,VWS V14.01,2013-06-15 04:12:00,
2013-06-14 23:17:00,79.6,70.2,29.87,NNE,24,0.0,2.0,73,0.00,,---,0.00,VWS V14.01,2013-06-15 04:17:00,
2013-06-14 23:23:00,79.6,69.8,29.87,North,360,1.0,3.0,72,0.00,,---,0.00,VWS V14.01,2013-06-15 04:23:00,
2013-06-14 23:28:00,79.5,70.1,29.87,North,5,1.0,3.0,73,0.00,,---,0.00,VWS V14.01,2013-06-15 04:28:00,
2013-06-14 23:33:00,79.4,70.0,29.87,NNE,24,0.0,2.0,73,0.00,,---,0.00,VWS V14.01,2013-06-15 04:33:00,
2013-06-14 23:38:00,79.4,70.0,29.87,NE,34,0.0,2.0,73,0.00,,---,0.00,VWS V14.01,2013-06-15 04:38:00,
2013-06-14 23:43:00,79.4,70.0,29.87,NE,40,0.0,3.0,73,0.00,,---,0.00,VWS V14.01,2013-06-15 04:43:00,
2013-06-14 23:48:00,79.3,69.9,29.87,NE,40,0.0,3.0,73,0.00,,---,0.00,VWS V14.01,2013-06-15 04:48:00,
2013-06-14 23:53:00,79.2,69.8,29.87,NE,40,1.0,3.0,73,0.00,,---,0.00,VWS V14.01,2013-06-15 04:53:00,
2013-06-14 23:58:00,79.2,69.8,29.88,NE,40,0.0,3.0,73,0.00,,---,0.00,VWS V14.01,2013-06-15 04:58:00,